Marshalltown, IA

3:11 AM CDT on August 19, 2017 (GMT -0500)
Marshalltown Municipal

Weather History for KMIW - February, 2014

Change the Weather History Date:

Friday, February 21, 2014

  Actual Average Record
Temperature  
Mean Temperature 24 °F 25 °F  
Max Temperature 30 °F 34 °F 63 °F (2017)
Min Temperature 17 °F 16 °F -2 °F (2001)
Degree Days  
Heating Degree Days 41 40  
Month to date heating degree days 1111 901  
Since 1 July heating degree days 5731 5134  
Cooling Degree Days 0 0  
Month to date cooling degree days 0 0  
Year to date cooling degree days 0 0  
Moisture  
Dew Point 15 °F    
Average Humidity 71    
Maximum Humidity 92    
Minimum Humidity 50    
Precipitation  
Precipitation 0.00 in 0.03 in 0.05 in (2005)
Month to date precipitation 0.57 0.54  
Sea Level Pressure  
Sea Level Pressure 29.75 in    
Wind  
Wind Speed 17 mph (West)    
Max Wind Speed 36 mph    
Max Gust Speed 46 mph    
Visibility 10 miles    
Events      
T = Trace of Precipitation, MM = Missing Value Source: NWS Daily Summary

Daily Weather History Graph

Daily Weather History Graph

Search for Another Location

Airport or City:

Trip Planner

Search our weather history database for the weather conditions in past years. The results will help you decide how hot, cold, wet, or windy it might be!

Date:

Astronomy

Feb. 21, 2014 Rise Set
Actual Time 6:59 AM CST 5:52 PM CST
Civil Twilight 6:30 AM CST 6:20 PM CST
Nautical Twilight 5:58 AM CST 6:52 PM CST
Astronomical Twilight 5:25 AM CST 7:25 PM CST
Moon No Moon Rise 10:16 AM CST (2/21)
Length of Visible Light 11h 49m
Length of Day
10h 52m
Waning Gibbous, 60% of the Moon is Illuminated
Feb 21
Waning Gibbous
Feb 22
Last Quarter
Mar 1
New
Mar 8
First Quarter
Mar 16
Full

Hourly Weather History & Observations

Time (CST) Temp. Windchill Dew Point Humidity Pressure Visibility Wind Dir Wind Speed Gust Speed Precip Events Conditions
12:53 AM 21.9 °F 4.2 °F 18.0 °F 85% 29.55 in 10.0 mi West 28.8 mph 40.3 mph N/A   Overcast
1:53 AM 21.0 °F 3.0 °F 16.0 °F 81% 29.56 in 10.0 mi WNW 28.8 mph 42.6 mph N/A   Overcast
2:53 AM 19.9 °F 1.5 °F 15.1 °F 81% 29.59 in 10.0 mi WNW 28.8 mph 39.1 mph N/A   Overcast
3:20 AM 19.0 °F 1.0 °F 12.9 °F 77% 29.58 in 10.0 mi West 26.5 mph 41.4 mph N/A   Scattered Clouds
3:53 AM 19.0 °F 1.3 °F 12.0 °F 74% 29.63 in 10.0 mi West 25.3 mph 34.5 mph N/A   Clear
4:53 AM 18.0 °F 0.6 °F 12.0 °F 78% 29.66 in 10.0 mi West 23.0 mph 32.2 mph N/A   Clear
5:53 AM 18.0 °F 1.7 °F 10.9 °F 74% 29.68 in 10.0 mi West 19.6 mph 28.8 mph N/A   Clear
6:53 AM 17.1 °F -0.3 °F 10.9 °F 77% 29.70 in 10.0 mi West 21.9 mph - N/A   Clear
7:53 AM 18.0 °F -0.2 °F 10.0 °F 71% 29.72 in 10.0 mi West 25.3 mph 35.7 mph N/A   Clear
8:53 AM 19.0 °F 0.3 °F 10.0 °F 68% 29.74 in 10.0 mi West 28.8 mph 38.0 mph N/A   Clear
9:53 AM 21.0 °F 4.3 °F 10.0 °F 63% 29.75 in 10.0 mi West 24.2 mph 33.4 mph N/A   Clear
10:53 AM 23.0 °F 5.7 °F 12.0 °F 63% 29.77 in 10.0 mi West 28.8 mph 36.8 mph N/A   Clear
11:53 AM 25.0 °F 10.2 °F 12.9 °F 60% 29.77 in 10.0 mi West 21.9 mph 29.9 mph N/A   Clear
12:53 PM 27.0 °F 12.8 °F 12.9 °F 56% 29.76 in 10.0 mi West 21.9 mph - N/A   Clear
1:53 PM 28.0 °F 16.5 °F 12.9 °F 53% 29.76 in 10.0 mi West 15.0 mph - N/A   Scattered Clouds
2:53 PM 28.0 °F 16.1 °F 15.1 °F 58% 29.78 in 10.0 mi WSW 16.1 mph - N/A   Overcast
3:53 PM 28.9 °F 19.2 °F 19.0 °F 67% 29.80 in 10.0 mi West 11.5 mph - N/A   Overcast
4:53 PM 28.9 °F 19.8 °F 21.0 °F 72% 29.81 in 10.0 mi West 10.4 mph - N/A   Partly Cloudy
5:53 PM 27.0 °F 18.7 °F 21.0 °F 78% 29.83 in 10.0 mi West 8.1 mph - N/A   Partly Cloudy
6:53 PM 25.0 °F 18.1 °F 19.0 °F 78% 29.85 in 10.0 mi West 5.8 mph - N/A   Clear
7:53 PM 24.1 °F 18.2 °F 19.0 °F 81% 29.86 in 10.0 mi West 4.6 mph - N/A   Partly Cloudy
8:53 PM 24.1 °F 19.7 °F 19.0 °F 81% 29.87 in 10.0 mi NW 3.5 mph - N/A   Overcast
9:53 PM 21.9 °F 17.2 °F 18.0 °F 85% 29.88 in 10.0 mi NW 3.5 mph - N/A   Partly Cloudy
10:53 PM 21.9 °F 17.2 °F 19.0 °F 89% 29.89 in 10.0 mi West 3.5 mph - N/A   Clear
11:53 PM 19.9 °F 11.1 °F 17.1 °F 89% 29.91 in 10.0 mi West 6.9 mph - N/A   Clear